Location: Central Falls
(41.8900°N, 71.3929°W)
Time: 04:13:13
(UTC+00:00)

Vanguard 2 Rocket - Pass Details

Date: 07 December 2023
Orbit: 555 x 3309 km, 32.9° (Epoch: 01 March)

Event Time Altitude Azimuth Distance (km) Brightness Sun altitude
Rises 21:58:38 0° 269° (W) 6,849 12.8 -8.2°
Reaches altitude 10° 22:02:59 10° 266° (W) 6,029 12.4 -8.9°
Maximum altitude 22:22:23 60° 194° (SSW) 3,543 10.0 -12.3°
Drops below altitude 10° 22:39:10 10° 120° (ESE) 5,300 10.4 -15.3°
Sets 22:42:42 0° 116° (ESE) 6,016 10.7 -15.9°
Enters shadow 22:42:51 - 116° (ESE) 6,046 10.7 -15.9°
